Weather History for Berlin, NH

Change the Weather History Date:

Wednesday, July 31, 2013

  Actual Average Record
Temperature  
Mean Temperature 62 °F -  
Max Temperature 80 °F 76 °F 89 °F (1999)
Min Temperature 45 °F 49 °F 39 °F (2010)
Degree Days  
Heating Degree Days 3    
Growing Degree Days 12 (Base 50)    
Moisture  
Dew Point 50 °F    
Average Humidity 85    
Maximum Humidity 100    
Minimum Humidity 40    
Precipitation  
Precipitation 0.00 in - - ()
Sea Level Pressure  
Sea Level Pressure 30.12 in    
Wind  
Wind Speed 2 mph (NW)    
Max Wind Speed 5 mph    
Max Gust Speed -    
Visibility 6 miles    
Events Fog    
Averages and records for this station are not official NWS values.
T = Trace of Precipitation, MM = Missing Value Source: NWS Daily Summary

Daily Weather History Graph

Daily Weather History Graph

Search for Another Location

Airport:

Trip Planner

Search our weather history database for the weather conditions in past years. The results will help you decide how hot, cold, wet, or windy it might be!

Date:

Astronomy

Jul. 31, 2013 Rise Set
Actual Time 5:30 AM EDT 8:11 PM EDT
Civil Twilight 4:56 AM EDT 8:44 PM EDT
Nautical Twilight 4:14 AM EDT 9:26 PM EDT
Astronomical Twilight 3:25 AM EDT 10:14 PM EDT
Moon 12:24 AM EDT (7/31) 3:25 PM EDT (7/31)
Length of Visible Light 15h 47m
Length of Day
14h 40m
Waning Crescent, 32% of the Moon is Illuminated
Jul 31
Waning Crescent
Aug 6
New
Aug 14
First Quarter
Aug 20
Full
Aug 28
Last Quarter

Hourly Weather History & Observations

Time (EDT) Temp. Dew Point Humidity Pressure Visibility Wind Dir Wind Speed Gust Speed Precip Events Conditions
12:52 AM 51.1 °F 48.9 °F 92% 30.11 in 8.0 mi North - - N/A   Clear
1:52 AM 48.9 °F 48.0 °F 97% 30.12 in 9.0 mi North - - N/A   Clear
3:03 AM 48.2 °F 46.4 °F 93% 30.12 in 8.0 mi North - - N/A   Mostly Cloudy
3:38 AM 48.2 °F 46.4 °F 93% 30.11 in 8.0 mi North - - N/A   Scattered Clouds
3:52 AM 48.9 °F 46.9 °F 93% 30.12 in 9.0 mi North - - N/A   Clear
4:02 AM 48.2 °F 46.4 °F 93% 30.12 in 9.0 mi North - - N/A   Partly Cloudy
4:21 AM 46.4 °F 46.4 °F 100% 30.12 in 1.2 mi North - - N/A   Scattered Clouds
4:24 AM 46.4 °F 46.4 °F 100% 30.12 in 0.8 mi North - - N/A   Mist
4:31 AM 48.2 °F 46.4 °F 93% 30.12 in 1.0 mi North - - N/A   Mist
4:36 AM 46.4 °F 46.4 °F 100% 30.12 in 2.5 mi North - - N/A   Mostly Cloudy
4:38 AM 46.4 °F 44.6 °F 93% 30.12 in 5.0 mi North - - N/A   Scattered Clouds
4:50 AM 46.4 °F 44.6 °F 93% 30.12 in 9.0 mi North - - N/A   Mostly Cloudy
4:52 AM 45.0 °F 44.1 °F 97% 30.13 in 10.0 mi North - - N/A   Mostly Cloudy
5:14 AM 46.4 °F 44.6 °F 93% 30.13 in 7.0 mi North - - N/A   Scattered Clouds
5:30 AM 46.4 °F 46.4 °F 100% 30.13 in 8.0 mi North - - N/A   Mostly Cloudy
5:38 AM 46.4 °F 44.6 °F 93% 30.14 in 1.5 mi North - - N/A   Mostly Cloudy
5:40 AM 46.4 °F 44.6 °F 93% 30.13 in 0.8 mi North - - N/A   Mostly Cloudy
5:48 AM 46.4 °F 46.4 °F 100% 30.14 in 0.2 mi North - - N/A Fog Fog
5:52 AM 46.9 °F 46.9 °F 100% 30.14 in 0.2 mi North - - N/A Fog Fog
6:20 AM 48.2 °F 48.2 °F 100% 30.14 in 0.8 mi North - - N/A   Mist
6:25 AM 48.2 °F 48.2 °F 100% 30.14 in 1.5 mi North - - N/A   Mostly Cloudy
6:32 AM 48.2 °F 48.2 °F 100% 30.15 in 0.8 mi North - - N/A   Mist
6:40 AM 48.2 °F 48.2 °F 100% 30.15 in 0.2 mi North - - N/A Fog Fog
6:48 AM 50.0 °F 48.2 °F 94% 30.15 in 1.2 mi North - - N/A   Overcast
6:50 AM 50.0 °F 50.0 °F 100% 30.15 in 2.5 mi North - - N/A   Overcast
6:52 AM 50.0 °F 50.0 °F 100% 30.16 in 3.0 mi North - - N/A   Mostly Cloudy
7:07 AM 53.6 °F 51.8 °F 94% 30.16 in 8.0 mi North - - N/A   Scattered Clouds
7:52 AM 55.0 °F 54.0 °F 96% 30.17 in 10.0 mi North - - N/A   Clear
8:52 AM 63.0 °F 59.0 °F 87% 30.15 in 10.0 mi Calm Calm - N/A   Clear
9:52 AM 69.1 °F 57.0 °F 65% 30.14 in 10.0 mi Calm Calm - N/A   Clear
10:52 AM 73.0 °F 54.0 °F 51% 30.12 in 10.0 mi NW 4.6 mph - N/A   Clear
11:52 AM 75.0 °F 54.0 °F 48% 30.12 in 10.0 mi Variable 4.6 mph - N/A   Mostly Cloudy
1:52 PM 75.9 °F 53.1 °F 45% 30.09 in 10.0 mi WNW 4.6 mph - N/A   Mostly Cloudy
2:52 PM 78.1 °F 54.0 °F 43% 30.08 in 10.0 mi Variable 4.6 mph - N/A   Clear
3:52 PM 78.1 °F 52.0 °F 40% 30.07 in 10.0 mi Calm Calm - N/A   Clear
4:52 PM 78.1 °F 53.1 °F 42% 30.06 in 10.0 mi Variable 4.6 mph - N/A   Clear
5:52 PM 79.0 °F 53.1 °F 40% 30.06 in 10.0 mi Calm Calm - N/A   Clear
6:52 PM 75.9 °F 54.0 °F 46% 30.05 in 10.0 mi Calm Calm - N/A   Clear
7:52 PM 68.0 °F 62.1 °F 81% 30.05 in 10.0 mi Calm Calm - N/A   Clear
8:52 PM 63.0 °F 60.1 °F 90% 30.06 in 10.0 mi Calm Calm - N/A   Clear
9:52 PM 57.9 °F 57.0 °F 97% 30.07 in 10.0 mi Calm Calm - N/A   Clear
10:52 PM 55.9 °F 55.0 °F 97% 30.07 in 10.0 mi Calm Calm - N/A   Clear
11:52 PM 54.0 °F 52.0 °F 93% 30.07 in 10.0 mi Calm Calm - N/A   Clear